TimeMDT,TemperatureF,Dew PointF,Humidity,Sea Level PressureIn,VisibilityMPH,Wind Direction,Wind SpeedMPH,Gust SpeedMPH,PrecipitationIn,Events,Conditions,WindDirDegrees,DateUTC
12:53 AM,37.0,23.0,57,30.27,10.0,East,8.1,-,N/A,,Overcast,90,2013-10-13 06:53:00
1:53 AM,33.1,23.0,66,30.27,10.0,East,6.9,-,N/A,,Clear,80,2013-10-13 07:53:00
2:53 AM,37.9,24.1,57,30.28,10.0,ENE,3.5,-,N/A,,Overcast,70,2013-10-13 08:53:00
3:53 AM,39.9,23.0,51,30.27,10.0,East,5.8,-,N/A,,Overcast,100,2013-10-13 09:53:00
4:53 AM,39.9,24.1,53,30.27,10.0,East,5.8,-,N/A,,Overcast,100,2013-10-13 10:53:00
5:53 AM,37.0,24.1,59,30.29,10.0,ESE,6.9,-,N/A,,Overcast,120,2013-10-13 11:53:00
6:53 AM,33.1,24.1,70,30.31,10.0,Calm,Calm,-,N/A,,Overcast,0,2013-10-13 12:53:00
7:53 AM,37.9,24.1,57,30.32,10.0,East,9.2,-,N/A,,Overcast,100,2013-10-13 13:53:00
8:53 AM,42.1,25.0,51,30.33,10.0,East,8.1,-,N/A,,Overcast,100,2013-10-13 14:53:00
9:53 AM,46.9,25.0,42,30.32,10.0,ESE,13.8,-,N/A,,Overcast,110,2013-10-13 15:53:00
10:53 AM,48.0,25.0,41,30.32,10.0,East,12.7,-,N/A,,Overcast,100,2013-10-13 16:53:00
11:53 AM,53.1,25.0,34,30.30,10.0,ESE,12.7,-,N/A,,Overcast,110,2013-10-13 17:53:00
12:53 PM,54.0,25.0,33,30.28,10.0,East,11.5,-,N/A,,Overcast,90,2013-10-13 18:53:00
1:53 PM,57.0,24.1,28,30.25,10.0,East,13.8,21.9,N/A,,Mostly Cloudy,80,2013-10-13 19:53:00
2:53 PM,55.0,23.0,29,30.24,10.0,East,11.5,-,N/A,,Overcast,90,2013-10-13 20:53:00
3:53 PM,55.0,23.0,29,30.23,10.0,East,13.8,-,N/A,,Partly Cloudy,100,2013-10-13 21:53:00
4:53 PM,54.0,23.0,30,30.24,10.0,East,13.8,19.6,N/A,,Clear,100,2013-10-13 22:53:00
5:53 PM,52.0,23.0,32,30.25,10.0,East,11.5,-,N/A,,Overcast,90,2013-10-13 23:53:00
6:53 PM,48.0,23.0,37,30.28,10.0,ENE,10.4,-,N/A,,Mostly Cloudy,70,2013-10-14 00:53:00
7:53 PM,48.0,23.0,37,30.29,10.0,ENE,11.5,-,N/A,,Overcast,70,2013-10-14 01:53:00
8:53 PM,46.9,24.1,41,30.29,10.0,ENE,11.5,-,N/A,,Clear,60,2013-10-14 02:53:00
9:53 PM,46.0,24.1,42,30.30,10.0,ENE,10.4,-,N/A,,Overcast,70,2013-10-14 03:53:00
10:53 PM,46.0,24.1,42,30.30,10.0,ENE,9.2,-,N/A,,Overcast,70,2013-10-14 04:53:00
11:53 PM,45.0,25.0,46,30.29,10.0,ENE,9.2,-,N/A,,Mostly Cloudy,70,2013-10-14 05:53:00